Vorticity
8 7 8 9 9 4 4 -3 30 -11 13 -1 16 2 -3 -3 -11 -1 8 6 5 4 2 0 1 4 10 9 9 9 10 12 13 13 9 5 7 7 2 2 2 3 5 5 5 5 7 7 7
8 8 9 5 -4 2 1 7 8 5 25 25 5 7 11 -1 -1 -15 14 4 5 -0 -0 0 0 4 10 9 11 12 14 16 15 12 7 8 6 5 3 1 2 2 0 2 4 5 6 6 6
5 5 10 8 20 -7 -5 12 4 4 5 4 2 6 5 9 5 -3 -2 2 12 -1 -2 -1 1 4 11 8 11 13 16 15 12 9 8 8 6 5 2 2 2 4 1 0 5 3 6 2 4
6 5 4 -1 -14 2 6 -2 11 9 4 4 8 1 0 15 7 -1 -1 7 -0 1 7 7 4 5 9 9 12 13 14 12 10 9 10 5 2 4 3 1 3 2 3 0 5 4 3 1 4
6 4 8 -5 6 -2 -4 -2 6 -4 -2 15 1 5 3 -0 11 14 5 -3 -4 -2 6 13 4 5 9 9 13 13 12 11 11 10 8 9 3 5 7 3 5 5 5 9 9 2 1 -0 8
5 3 -6 -1 0 1 3 3 3 -2 -4 -25 19 -5 6 18 9 1 5 8 9 3 6 7 3 5 7 9 11 11 11 11 10 8 9 9 5 7 2 6 3 7 -1 5 1 4 3 10 6
4 3 -3 4 4 3 8 4 8 -6 13 52 15 12 14 10 3 2 4 5 3 7 13 5 4 7 5 8 9 9 8 7 8 9 9 8 10 11 8 6 5 7 8 8 4 8 4 6 2
5 7 4 2 2 0 15 4 -7 -2 26 40 4 9 1 1 12 9 6 7 2 3 4 8 4 6 4 7 8 7 7 6 5 6 6 6 7 8 10 8 8 5 8 10 2 7 7 1 6
10 5 5 8 -3 -3 5 11 4 -15 -1 9 2 -1 9 9 4 8 4 5 6 -1 7 8 3 7 4 5 6 6 6 6 6 5 4 6 4 6 8 8 8 6 7 7 7 3 7 3 6
7 -0 8 -3 2 -2 2 7 1 -8 -11 -1 13 7 3 5 1 -0 -1 2 4 3 7 6 4 9 3 5 4 4 5 5 6 5 4 4 4 4 4 4 6 6 7 7 7 6 7 7 6
4 0 -1 -5 3 2 17 7 5 0 4 -5 19 9 3 -3 8 13 7 11 11 9 6 2 7 9 5 6 2 4 3 4 4 6 7 6 6 6 6 6 7 8 6 7 6 11 8 8 6
10 14 7 11 6 4 1 3 9 8 -0 3 0 19 15 11 11 1 1 -2 -1 -1 3 4 4 8 3 4 3 3 2 3 2 3 5 8 7 7 10 8 6 6 9 8 6 5 8 7 10
2 8 11 12 8 8 7 3 5 18 -6 -6 -10 25 12 10 9 7 7 4 8 0 0 -4 2 10 5 4 3 2 4 3 4 1 3 5 6 3 4 7 7 4 5 12 9 8 8 8 9
11 15 12 8 8 8 9 8 8 7 -11 5 -3 -6 5 12 4 6 6 5 9 11 28 28 25 14 12 8 6 3 4 5 2 4 4 4 4 2 1 1 4 7 4 8 12 11 12 8 9
7 16 2 1 10 7 4 11 23 -4 6 1 4 -6 -1 15 12 13 17 3 8 6 23 3 5 4 3 3 4 11 6 3 4 5 5 5 5 4 2 1 3 4 5 5 12 13 10 11 8
-9 -7 15 -2 18 6 7 21 8 7 7 8 -0 5 -1 3 16 8 9 11 8 17 1 11 4 3 3 6 4 4 2 8 6 5 6 6 5 7 5 3 2 3 3 3 7 11 11 9 6
32 7 -0 33 -14 3 46 13 8 9 6 23 -0 7 5 -2 -1 2 -1 6 2 -1 9 7 0 7 3 7 3 -0 3 -9 10 5 3 5 6 6 7 6 4 2 3 2 3 8 11 9 11
-4 8 -5 20 -1 -12 8 19 29 0 13 21 12 13 8 6 2 -1 -6 2 -1 -1 -5 13 1 -1 4 4 5 1 5 6 8 8 4 3 4 6 10 7 6 4 4 2 3 1 7 10 9
30 5 -0 22 17 6 22 0 24 16 12 -11 28 20 2 14 9 -1 3 12 -0 0 -6 -3 12 3 4 7 9 5 2 4 5 8 16 6 3 2 8 8 9 7 5 3 1 2 1 8 9
-2 6 16 20 1 -18 30 26 7 34 5 1 2 12 13 24 16 27 27 11 22 26 25 26 7 3 5 2 2 10 11 5 7 1 10 11 1 5 6 7 6 7 5 5 1 2 1 3 9
12 15 2 12 47 -18 12 28 16 19 37 13 5 5 -3 3 15 14 4 18 -3 16 20 6 10 9 3 8 17 3 2 3 -0 -1 -2 21 13 8 8 8 3 15 7 4 4 1 1 1 7
33 34 13 19 14 1 -7 28 14 21 -1 37 23 11 26 23 12 1 26 25 16 2 7 13 12 12 18 14 -4 6 3 -0 2 -3 2 9 9 7 6 6 6 12 12 6 4 3 1 1 5
26 58 28 17 11 2 29 5 46 15 5 -1 11 9 7 15 27 33 17 8 9 19 7 13 6 8 4 12 9 6 2 -1 0 1 -3 7 9 9 11 9 8 5 16 7 5 3 1 1 2
36 26 6 21 13 31 6 -22 41 34 13 35 2 7 22 15 18 15 0 -0 12 14 13 11 17 20 14 6 4 6 7 4 2 5 -6 20 9 8 10 7 9 4 13 8 6 4 1 0 1
24 16 17 20 13 10 60 18 -41 42 25 10 24 -12 -5 26 9 30 18 4 -1 10 4 -1 -5 -2 0 5 2 5 6 5 4 17 26 13 13 9 8 9 8 9 7 13 6 4 2 1 1
13 19 -20 5 11 15 66 2 -0 12 17 17 40 13 26 -21 -10 6 7 -4 6 2 11 14 5 0 -5 -11 -1 -6 -7 4 19 11 9 7 10 6 9 12 10 10 4 14 10 4 3 1 3
54 1 10 -20 27 6 9 26 -20 22 -1 38 23 28 5 9 43 -6 -20 21 23 11 19 19 17 18 16 10 12 9 22 10 8 9 7 7 11 13 12 14 15 13 6 17 10 4 3 1 5
17 16 21 -2 12 9 12 1 2 44 27 25 31 28 31 31 16 13 35 -1 6 9 3 -1 3 -1 -5 7 8 8 3 7 9 8 7 8 11 8 15 11 15 13 10 17 8 4 3 1 8
38 -0 8 12 12 6 14 -3 20 38 24 15 11 6 -0 6 6 10 14 15 1 -0 -3 -3 -2 -4 13 15 12 14 12 13 12 15 14 12 13 10 14 12 17 13 11 14 8 5 2 4 11
16 17 3 18 -2 10 14 6 37 13 3 10 -4 10 21 7 -0 -3 5 4 7 1 9 3 9 14 17 14 17 13 15 14 12 16 18 15 12 8 12 12 19 11 11 15 8 3 2 8 12
Height
3140 3141 3142 3144 3149 3142 3139 3137 3139 3140 3139 3141 3141 3140 3139 3137 3138 3142 3143 3144 3146 3148 3150 3151 3152 3153 3152 3152 3151 3150 3149 3150 3151 3152 3153 3155 3157 3158 3159 3159 3159 3160 3161 3161 3162 3162 3162 3162 3162
3138 3138 3139 3138 3140 3137 3135 3134 3137 3138 3136 3137 3140 3138 3137 3136 3136 3137 3140 3142 3143 3147 3148 3149 3150 3151 3151 3150 3149 3147 3147 3147 3148 3150 3152 3154 3156 3157 3158 3158 3159 3160 3160 3160 3161 3161 3162 3162 3161
3137 3137 3137 3134 3131 3129 3130 3133 3134 3135 3134 3136 3139 3137 3136 3136 3135 3136 3138 3140 3142 3145 3146 3147 3148 3149 3150 3149 3147 3145 3144 3145 3147 3148 3150 3152 3154 3156 3157 3157 3158 3159 3159 3160 3160 3160 3160 3161 3160
3134 3136 3134 3127 3122 3125 3126 3131 3133 3134 3134 3134 3137 3136 3135 3134 3133 3134 3136 3139 3141 3143 3145 3146 3147 3148 3148 3147 3146 3144 3143 3144 3146 3147 3149 3151 3153 3154 3155 3156 3157 3157 3158 3158 3159 3159 3160 3160 3159
3130 3129 3127 3119 3118 3121 3124 3127 3131 3130 3131 3133 3135 3132 3131 3130 3130 3133 3136 3138 3140 3142 3143 3144 3145 3146 3146 3146 3145 3144 3143 3144 3145 3147 3148 3150 3152 3153 3154 3154 3155 3156 3157 3157 3158 3158 3159 3159 3158
3124 3124 3117 3111 3113 3119 3120 3124 3125 3126 3126 3128 3131 3127 3126 3126 3128 3132 3135 3136 3138 3139 3141 3143 3143 3144 3145 3145 3144 3143 3143 3144 3145 3147 3148 3149 3151 3152 3153 3153 3153 3154 3155 3156 3157 3157 3158 3158 3158
3118 3116 3106 3106 3108 3112 3119 3122 3121 3122 3121 3118 3125 3122 3121 3121 3124 3129 3133 3134 3136 3138 3139 3140 3142 3143 3143 3144 3143 3144 3143 3144 3145 3146 3148 3149 3150 3151 3151 3151 3151 3152 3153 3154 3156 3157 3157 3156 3157
3114 3110 3099 3099 3103 3103 3116 3118 3117 3119 3119 3120 3121 3117 3116 3119 3121 3125 3128 3130 3133 3134 3136 3137 3139 3140 3141 3142 3142 3143 3143 3144 3145 3145 3147 3148 3149 3150 3150 3150 3150 3151 3152 3153 3154 3155 3156 3155 3155
3108 3101 3089 3094 3100 3101 3111 3111 3115 3115 3114 3119 3117 3115 3115 3114 3117 3121 3124 3127 3129 3131 3133 3134 3136 3138 3139 3139 3140 3142 3143 3143 3144 3145 3145 3147 3147 3148 3149 3149 3149 3149 3149 3151 3152 3153 3154 3154 3153
3100 3090 3086 3092 3097 3098 3103 3104 3108 3109 3108 3108 3111 3112 3109 3108 3109 3113 3117 3121 3126 3127 3129 3131 3132 3134 3135 3136 3138 3139 3140 3141 3142 3143 3144 3145 3146 3146 3146 3147 3147 3147 3147 3148 3150 3150 3152 3152 3151
3092 3073 3086 3088 3091 3093 3092 3094 3103 3100 3098 3105 3106 3107 3107 3104 3104 3107 3112 3116 3119 3123 3125 3127 3128 3130 3132 3133 3135 3137 3138 3139 3140 3142 3142 3143 3144 3144 3144 3144 3145 3145 3145 3146 3146 3148 3149 3150 3149
3080 3078 3080 3081 3084 3084 3083 3089 3086 3091 3090 3098 3102 3101 3100 3099 3100 3102 3105 3110 3113 3115 3119 3122 3124 3126 3129 3130 3132 3134 3135 3137 3138 3139 3140 3141 3142 3142 3142 3142 3143 3143 3143 3143 3143 3145 3145 3147 3147
3069 3072 3073 3075 3072 3072 3079 3073 3080 3077 3085 3092 3095 3097 3095 3095 3096 3100 3102 3106 3109 3111 3114 3116 3119 3122 3124 3127 3128 3130 3132 3134 3135 3136 3137 3138 3139 3140 3140 3141 3141 3141 3140 3140 3141 3141 3142 3143 3143
3063 3062 3059 3061 3054 3061 3066 3063 3077 3058 3078 3083 3087 3091 3093 3092 3091 3094 3096 3098 3101 3105 3107 3110 3113 3117 3120 3123 3125 3127 3129 3131 3132 3133 3134 3135 3136 3137 3138 3139 3139 3138 3138 3137 3137 3137 3138 3139 3139
3054 3050 3048 3043 3043 3047 3062 3056 3051 3055 3069 3071 3077 3081 3086 3087 3087 3088 3090 3093 3095 3100 3102 3104 3108 3111 3114 3117 3120 3122 3125 3127 3128 3130 3130 3131 3132 3133 3134 3135 3136 3136 3135 3135 3134 3133 3134 3135 3136
3046 3044 3033 3031 3044 3042 3057 3038 3034 3052 3060 3059 3066 3071 3076 3079 3081 3083 3087 3088 3090 3093 3096 3099 3102 3105 3108 3111 3114 3117 3120 3121 3123 3125 3126 3127 3128 3128 3129 3130 3132 3132 3132 3132 3131 3130 3130 3131 3132
3035 3031 3033 3022 3033 3038 3042 3030 3022 3042 3048 3051 3054 3059 3065 3069 3073 3076 3079 3083 3086 3087 3091 3094 3096 3099 3102 3105 3107 3110 3113 3116 3118 3120 3121 3122 3123 3124 3124 3125 3127 3128 3129 3128 3128 3127 3126 3127 3128
3024 3026 3024 3024 3021 3030 3030 3022 3018 3032 3039 3040 3044 3047 3054 3059 3063 3069 3073 3077 3079 3082 3084 3086 3090 3094 3097 3100 3101 3102 3105 3108 3111 3113 3115 3117 3117 3118 3119 3120 3121 3122 3123 3124 3124 3123 3122 3122 3122
3023 3019 3018 3015 3017 3021 3019 3016 3014 3024 3029 3031 3035 3038 3042 3048 3056 3060 3063 3068 3072 3075 3076 3078 3082 3087 3090 3092 3094 3094 3097 3101 3104 3106 3109 3111 3112 3112 3114 3115 3116 3116 3117 3119 3119 3119 3117 3117 3117
3017 3012 3006 3006 3011 3015 3010 3008 3005 3012 3016 3021 3027 3030 3034 3039 3045 3050 3054 3058 3061 3065 3068 3071 3075 3080 3084 3087 3090 3089 3091 3093 3095 3099 3101 3103 3104 3105 3107 3109 3109 3109 3111 3113 3113 3113 3112 3111 3110
3001 2994 2996 3003 3006 3005 3004 3001 2997 2999 3004 3012 3019 3022 3027 3032 3037 3042 3046 3050 3054 3057 3061 3064 3069 3073 3077 3080 3082 3084 3084 3085 3087 3091 3095 3098 3098 3099 3099 3100 3102 3103 3104 3106 3107 3108 3107 3106 3105
2985 2990 2993 2996 3002 3000 3000 2994 2989 2992 2998 3002 3011 3014 3019 3024 3031 3036 3039 3043 3047 3051 3055 3058 3062 3065 3067 3069 3073 3076 3077 3080 3083 3085 3086 3090 3092 3092 3092 3093 3094 3095 3097 3099 3101 3102 3102 3101 3100
2974 2983 2985 2989 2993 3000 2995 2996 2979 2987 2990 2996 3003 3008 3013 3018 3023 3025 3029 3034 3036 3039 3042 3045 3050 3052 3056 3058 3063 3068 3070 3071 3074 3077 3078 3080 3081 3082 3084 3085 3086 3087 3089 3091 3094 3095 3095 3095 3094
2978 2979 2983 2987 2992 2992 2990 2993 2976 2980 2983 2990 2996 3003 3010 3011 3014 3019 3023 3029 3032 3035 3039 3042 3045 3049 3053 3054 3058 3061 3062 3063 3064 3067 3069 3070 3071 3072 3074 3076 3078 3079 3081 3083 3086 3088 3088 3089 3088
2977 2981 2984 2988 2988 2980 2976 2988 2972 2974 2977 2983 2991 3000 3005 3006 3010 3015 3020 3023 3028 3032 3036 3039 3042 3045 3048 3051 3052 3053 3054 3055 3054 3057 3058 3060 3060 3062 3066 3066 3069 3070 3073 3076 3078 3080 3081 3081 3081
2977 2977 2973 2975 2969 2970 2972 2976 2968 2973 2976 2980 2984 2989 2995 2996 3009 3015 3016 3018 3021 3025 3029 3033 3037 3041 3044 3046 3047 3047 3046 3046 3046 3048 3049 3050 3052 3053 3055 3057 3059 3062 3064 3066 3070 3072 3073 3074 3074
2972 2972 2972 2973 2972 2966 2971 2970 2972 2967 2970 2973 2979 2982 2986 2995 3002 3005 3010 3012 3016 3021 3025 3029 3032 3035 3038 3040 3041 3040 3039 3037 3037 3038 3038 3040 3042 3044 3045 3047 3050 3053 3055 3057 3060 3063 3065 3067 3066
2972 2973 2976 2975 2975 2971 2967 2969 2972 2969 2967 2970 2974 2976 2980 2987 2994 2999 3004 3009 3014 3019 3023 3026 3028 3030 3033 3034 3033 3031 3029 3027 3028 3027 3027 3030 3033 3034 3036 3037 3039 3044 3046 3048 3052 3055 3058 3059 3059
2977 2976 2975 2976 2977 2975 2973 2973 2973 2973 2971 2969 2975 2978 2982 2987 2991 2997 3002 3007 3012 3016 3019 3020 3021 3023 3023 3024 3022 3019 3017 3016 3015 3015 3016 3019 3021 3023 3026 3029 3029 3034 3037 3040 3043 3047 3050 3051 3051
2980 2979 2978 2978 2979 2977 2976 2974 2970 2970 2971 2970 2974 2977 2981 2986 2991 2996 3001 3005 3008 3012 3013 3012 3012 3014 3013 3011 3011 3008 3006 3004 3003 3003 3005 3007 3008 3013 3015 3019 3020 3025 3028 3032 3035 3040 3043 3043 3043